• In Belgium
  • List of Countries
  • For 7 days
  • Water Temperature
  • Satellite Maps
  • Weather Map
  • Weather Widgets
  • user-avatar
    Login

    Hourly Weather Tirana

    Today, 19 September, Wednesday

    Time Temperature Precipitation Wind Pressure Humidity
    00:00 +23°C° 0 mm 1 mps 756 mmHg 55%
    01:00 +23°C° 0 mm 1 mps 756 mmHg 56%
    02:00 +23°C° 0 mm 1 mps 756 mmHg 56%
    03:00 +22°C° 0 mm 1 mps 756 mmHg 57%
    04:00 +22°C° 0 mm 1 mps 756 mmHg 58%
    05:00 +23°C° 0 mm 1 mps 756 mmHg 57%
    06:00 +24°C° 0 mm 2 mps 756 mmHg 55%
    07:00 +25°C° 0 mm 2 mps 756 mmHg 54%
    08:00 +27°C° 0 mm 1 mps 756 mmHg 48%
    09:00 +30°C° 0 mm 1 mps 756 mmHg 42%
    10:00 +32°C° 0 mm 1 mps 756 mmHg 36%
    11:00 +33°C° 0 mm 1 mps 756 mmHg 34%
    12:00 +34°C° 0 mm 2 mps 756 mmHg 32%
    13:00 +34°C° 0 mm 3 mps 756 mmHg 31%
    14:00 +34°C° 0 mm 3 mps 755 mmHg 33%
    15:00 +33°C° 0 mm 3 mps 755 mmHg 35%
    16:00 +31°C° 0 mm 3 mps 755 mmHg 36%
    17:00 +29°C° 0 mm 3 mps 755 mmHg 43%
    18:00 +27°C° 0 mm 2 mps 755 mmHg 49%
    19:00 +25°C° 0 mm 1 mps 755 mmHg 56%
    20:00 +25°C° 0 mm 1 mps 756 mmHg 56%
    21:00 +24°C° 0 mm 1 mps 756 mmHg 56%
    22:00 +24°C° 0 mm 1 mps 756 mmHg 56%
    23:00 +24°C° 0 mm 1 mps 756 mmHg 56%

    Tomorrow, 20 September, Thursday

    Time Temperature Precipitation Wind Pressure Humidity
    00:00 +24°C° 0 mm 1 mps 756 mmHg 56%
    01:00 +23°C° 0 mm 1 mps 756 mmHg 56%
    02:00 +23°C° 0 mm 1 mps 756 mmHg 56%
    03:00 +23°C° 0 mm 1 mps 755 mmHg 57%
    04:00 +23°C° 0 mm 1 mps 755 mmHg 57%
    05:00 +23°C° 0 mm 1 mps 755 mmHg 56%
    06:00 +24°C° 0 mm 1 mps 755 mmHg 54%
    07:00 +25°C° 0 mm 2 mps 755 mmHg 52%
    08:00 +28°C° 0 mm 1 mps 755 mmHg 46%
    09:00 +30°C° 0 mm 1 mps 755 mmHg 40%
    10:00 +32°C° 0 mm 1 mps 755 mmHg 34%
    11:00 +34°C° 0 mm 2 mps 755 mmHg 33%
    12:00 +34°C° 0 mm 2 mps 755 mmHg 32%
    13:00 +34°C° 0 mm 3 mps 755 mmHg 32%
    14:00 +33°C° 0 mm 3 mps 754 mmHg 35%
    15:00 +31°C° 0 mm 3 mps 754 mmHg 38%
    16:00 +31°C° 0 mm 3 mps 754 mmHg 41%
    17:00 +29°C° 0 mm 3 mps 754 mmHg 47%
    18:00 +27°C° 0 mm 2 mps 754 mmHg 53%
    19:00 +25°C° 0 mm 2 mps 754 mmHg 59%
    20:00 +24°C° 0 mm 1 mps 755 mmHg 58%
    21:00 +24°C° 0 mm 1 mps 755 mmHg 57%
    22:00 +24°C° 0 mm 1 mps 755 mmHg 56%
    23:00 +24°C° 0 mm 1 mps 755 mmHg 55%

    Day after tomorrow, 21 September, Friday

    Time Temperature Precipitation Wind Pressure Humidity
    00:00 +23°C° 0 mm 1 mps 755 mmHg 53%
    01:00 +23°C° 0 mm 1 mps 755 mmHg 52%
    02:00 +23°C° 0 mm 1 mps 755 mmHg 51%
    03:00 +23°C° 0 mm 1 mps 755 mmHg 50%
    04:00 +22°C° 0 mm 1 mps 755 mmHg 49%
    05:00 +23°C° 0 mm 1 mps 755 mmHg 48%
    06:00 +24°C° 0 mm 1 mps 755 mmHg 46%
    07:00 +25°C° 0 mm 1 mps 755 mmHg 45%
    08:00 +27°C° 0 mm 1 mps 755 mmHg 41%
    09:00 +30°C° 0 mm 1 mps 755 mmHg 36%
    10:00 +32°C° 0 mm 1 mps 755 mmHg 32%
    11:00 +32°C° 0 mm 2 mps 755 mmHg 31%
    12:00 +34°C° 0 mm 2 mps 755 mmHg 30%
    13:00 +34°C° 0 mm 3 mps 755 mmHg 30%
    14:00 +33°C° 0 mm 3 mps 755 mmHg 33%
    15:00 +33°C° 0 mm 3 mps 754 mmHg 37%
    16:00 +31°C° 0 mm 3 mps 754 mmHg 40%
    17:00 +29°C° 0 mm 2 mps 754 mmHg 49%
    18:00 +26°C° 0 mm 1 mps 755 mmHg 57%
    19:00 +22°C° 0 mm 0 mps 755 mmHg 66%
    20:00 +22°C° 0 mm 0 mps 755 mmHg 66%
    21:00 +24°C° 0 mm 1 mps 755 mmHg 66%
    22:00 +23°C° 0 mm 1 mps 756 mmHg 66%
    23:00 +23°C° 0 mm 1 mps 756 mmHg 66%

    22 September, Saturday

    Time Temperature Precipitation Wind Pressure Humidity
    00:00 +23°C° 0 mm 1 mps 755 mmHg 66%
    01:00 +23°C° 0 mm 1 mps 755 mmHg 66%
    02:00 +22°C° 0 mm 1 mps 755 mmHg 66%
    03:00 +22°C° 0 mm 1 mps 755 mmHg 66%
    04:00 +22°C° 0 mm 1 mps 755 mmHg 66%
    05:00 +23°C° 0 mm 1 mps 755 mmHg 62%
    06:00 +24°C° 0 mm 1 mps 755 mmHg 59%
    07:00 +25°C° 0 mm 1 mps 756 mmHg 55%
    08:00 +27°C° 0 mm 1 mps 756 mmHg 49%
    09:00 +29°C° 0 mm 1 mps 756 mmHg 43%
    10:00 +31°C° 0 mm 1 mps 756 mmHg 38%
    11:00 +31°C° 0 mm 2 mps 755 mmHg 36%
    12:00 +32°C° 0 mm 2 mps 755 mmHg 35%
    13:00 +33°C° 0 mm 3 mps 755 mmHg 34%
    14:00 +33°C° 0 mm 3 mps 755 mmHg 37%
    15:00 +31°C° 0 mm 3 mps 754 mmHg 40%
    16:00 +30°C° 0 mm 3 mps 754 mmHg 43%
    17:00 +28°C° 0 mm 2 mps 755 mmHg 52%
    18:00 +26°C° 0 mm 2 mps 755 mmHg 60%
    19:00 +24°C° 0 mm 1 mps 755 mmHg 69%
    20:00 +23°C° 0 mm 1 mps 755 mmHg 70%
    21:00 +23°C° 0 mm 1 mps 756 mmHg 70%
    22:00 +23°C° 0 mm 1 mps 756 mmHg 70%
    23:00 +23°C° 0 mm 1 mps 756 mmHg 69%

    23 September, Sunday

    Time Temperature Precipitation Wind Pressure Humidity
    00:00 +22°C° 0 mm 1 mps 756 mmHg 68%
    01:00 +22°C° 0 mm 1 mps 755 mmHg 68%
    02:00 +22°C° 0 mm 1 mps 756 mmHg 66%
    03:00 +22°C° 0 mm 1 mps 756 mmHg 65%
    04:00 +22°C° 0 mm 1 mps 756 mmHg 64%
    05:00 +23°C° 0 mm 1 mps 756 mmHg 61%
    06:00 +24°C° 0 mm 1 mps 756 mmHg 57%
    07:00 +25°C° 0 mm 2 mps 756 mmHg 53%
    08:00 +27°C° 0 mm 2 mps 756 mmHg 47%
    09:00 +29°C° 0 mm 2 mps 756 mmHg 41%
    10:00 +31°C° 0 mm 2 mps 756 mmHg 35%
    11:00 +32°C° 0 mm 2 mps 756 mmHg 34%
    12:00 +34°C° 0 mm 3 mps 756 mmHg 32%
    13:00 +35°C° 0 mm 3 mps 755 mmHg 30%
    14:00 +34°C° 0 mm 4 mps 755 mmHg 32%
    15:00 +33°C° 0 mm 4 mps 755 mmHg 34%
    16:00 +33°C° 0 mm 4 mps 755 mmHg 36%
    17:00 +29°C° 0 mm 3 mps 755 mmHg 44%
    18:00 +27°C° 0 mm 2 mps 755 mmHg 52%
    19:00 +24°C° 0 mm 1 mps 755 mmHg 59%
    20:00 +24°C° 0 mm 1 mps 755 mmHg 59%
    21:00 +24°C° 0 mm 1 mps 755 mmHg 59%
    22:00 +24°C° 0 mm 1 mps 755 mmHg 58%
    23:00 +23°C° 0 mm 2 mps 755 mmHg 58%

    24 September, Monday

    Time Temperature Precipitation Wind Pressure Humidity
    00:00 +23°C° 0 mm 2 mps 755 mmHg 58%
    01:00 +23°C° 0 mm 2 mps 754 mmHg 58%
    02:00 +23°C° 0 mm 2 mps 754 mmHg 58%
    03:00 +23°C° 0 mm 2 mps 754 mmHg 58%
    04:00 +21°C° 0 mm 2 mps 753 mmHg 59%
    05:00 +22°C° 0 mm 3 mps 753 mmHg 56%
    06:00 +24°C° 0 mm 3 mps 753 mmHg 54%
    07:00 +25°C° 0 mm 3 mps 753 mmHg 51%
    08:00 +27°C° 0 mm 4 mps 753 mmHg 46%
    09:00 +29°C° 0 mm 4 mps 753 mmHg 41%
    10:00 +32°C° 0 mm 4 mps 752 mmHg 35%
    11:00 +32°C° 0 mm 5 mps 752 mmHg 35%
    12:00 +33°C° 0 mm 6 mps 751 mmHg 34%
    13:00 +34°C° 0 mm 6 mps 751 mmHg 34%
    14:00 +33°C° 0 mm 6 mps 751 mmHg 37%
    15:00 +32°C° 0 mm 7 mps 750 mmHg 40%
    16:00 +30°C° 0 mm 7 mps 750 mmHg 44%
    17:00 +28°C° 0 mm 7 mps 750 mmHg 53%
    18:00 +26°C° 0 mm 6 mps 750 mmHg 63%
    19:00 +23°C° 0 mm 6 mps 749 mmHg 72%
    20:00 +23°C° 0.5 mm 6 mps 749 mmHg 74%
    21:00 +22°C° 0.5 mm 6 mps 749 mmHg 75%
    22:00 +22°C° 0.5 mm 6 mps 749 mmHg 76%
    23:00 +22°C° 1.1 mm 5 mps 749 mmHg 75%
    Show more